Weather History for KCEU - April, 2013

Change the Weather History Date:

Wednesday, April 3, 2013

  Actual Average Record
Temperature  
Mean Temperature 56 °F -  
Max Temperature 61 °F 70 °F 90 °F (1946)
Min Temperature 52 °F 43 °F 24 °F (1971)
Degree Days  
Heating Degree Days 8    
Growing Degree Days 6 (Base 50)    
Moisture  
Dew Point 23 °F    
Average Humidity 27    
Maximum Humidity 43    
Minimum Humidity 20    
Precipitation  
Precipitation 0.00 in - - ()
Sea Level Pressure  
Sea Level Pressure 30.18 in    
Wind  
Wind Speed 5 mph (ENE)    
Max Wind Speed 10 mph    
Max Gust Speed 21 mph    
Visibility 10 miles    
Events      
Averages and records for this station are not official NWS values.
T = Trace of Precipitation, MM = Missing Value Source: NWS Daily Summary

Daily Weather History Graph

Daily Weather History Graph

Search for Another Location

Airport or City:

Trip Planner

Search our weather history database for the weather conditions in past years. The results will help you decide how hot, cold, wet, or windy it might be!

Date:

Astronomy

Apr. 03, 2013 Rise Set
Actual Time 7:15 AM EDT 7:54 PM EDT
Civil Twilight 6:50 AM EDT 8:19 PM EDT
Nautical Twilight 6:20 AM EDT 8:49 PM EDT
Astronomical Twilight 5:49 AM EDT 9:20 PM EDT
Moon 2:39 AM EDT (4/3) 1:20 PM EDT (4/3)
Length of Visible Light 13h 29m
Length of Day
12h 38m
Last Quarter, 45% of the Moon is Illuminated
Apr 3
Last Quarter
Apr 10
New
Apr 18
First Quarter
Apr 25
Full
May 2
Last Quarter

Hourly Weather History & Observations

Time (EDT) Temp. Dew Point Humidity Pressure Visibility Wind Dir Wind Speed Gust Speed Precip Events Conditions
12:54 AM 57.0 °F 21.0 °F 25% 30.12 in 10.0 mi WNW 6.9 mph - N/A   Overcast
1:54 AM 55.9 °F 21.9 °F 27% 30.12 in 10.0 mi Calm Calm - N/A   Overcast
2:54 AM 55.0 °F 24.1 °F 30% 30.11 in 10.0 mi NNW 4.6 mph - N/A   Overcast
3:54 AM 55.0 °F 26.1 °F 33% 30.11 in 10.0 mi NE 5.8 mph - N/A   Overcast
4:54 AM 54.0 °F 23.0 °F 30% 30.11 in 10.0 mi ENE 8.1 mph - N/A   Overcast
5:54 AM 53.1 °F 21.0 °F 29% 30.13 in 10.0 mi ENE 5.8 mph - N/A   Mostly Cloudy
6:54 AM 52.0 °F 21.9 °F 31% 30.16 in 10.0 mi ENE 6.9 mph - N/A   Mostly Cloudy
7:54 AM 52.0 °F 21.0 °F 30% 30.21 in 10.0 mi ENE 9.2 mph - N/A   Overcast
8:54 AM 52.0 °F 21.0 °F 30% 30.21 in 10.0 mi ENE 6.9 mph - N/A   Mostly Cloudy
9:54 AM 54.0 °F 19.9 °F 26% 30.22 in 10.0 mi NE 10.4 mph 19.6 mph N/A   Clear
10:54 AM 55.9 °F 17.1 °F 22% 30.24 in 10.0 mi ENE 10.4 mph 20.7 mph N/A   Clear
11:54 AM 57.0 °F 17.1 °F 21% 30.24 in 10.0 mi ENE 10.4 mph - N/A   Clear
12:54 PM 57.9 °F 17.1 °F 20% 30.23 in 10.0 mi Variable 6.9 mph - N/A   Scattered Clouds
1:54 PM 59.0 °F 18.0 °F 20% 30.21 in 10.0 mi ENE 8.1 mph - N/A   Partly Cloudy
2:54 PM 59.0 °F 19.0 °F 21% 30.19 in 10.0 mi South 4.6 mph - N/A   Scattered Clouds
3:54 PM 61.0 °F 21.9 °F 22% 30.19 in 10.0 mi Calm Calm - N/A   Scattered Clouds
4:54 PM 61.0 °F 23.0 °F 23% 30.18 in 10.0 mi ESE 4.6 mph - N/A   Partly Cloudy
5:54 PM 61.0 °F 21.9 °F 22% 30.17 in 10.0 mi ENE 4.6 mph - N/A   Mostly Cloudy
6:54 PM 60.1 °F 24.1 °F 25% 30.17 in 10.0 mi East 3.5 mph - N/A   Scattered Clouds
7:54 PM 57.9 °F 26.1 °F 30% 30.18 in 10.0 mi Calm Calm - N/A   Partly Cloudy
8:54 PM 57.9 °F 26.1 °F 30% 30.21 in 10.0 mi Calm Calm - N/A   Partly Cloudy
9:54 PM 57.0 °F 28.0 °F 33% 30.22 in 10.0 mi Calm Calm - N/A   Scattered Clouds
10:54 PM 55.9 °F 28.0 °F 34% 30.24 in 10.0 mi Calm Calm - N/A   Clear
11:54 PM 55.0 °F 33.1 °F 43% 30.23 in 10.0 mi ENE 3.5 mph - N/A   Overcast